| time (UTC) | temp F | wind direction | speed MPH | gust MPH | rain 1hr in | rain 24hr in | rain mn in | humidity % | barometer mb |
| 20260505091556 | 64 | 123 | 0.0 | 0.0 | 0.00 | 0.00 | 0.00 | 61 | 1010.3 |
| 20260505091055 | 64 | 124 | 1.0 | 1.0 | 0.00 | 0.00 | 0.00 | 61 | 1010.2 |
| 20260505090552 | 64 | 162 | 2.0 | 3.0 | 0.00 | 0.00 | 0.00 | 61 | 1010.3 |
| 20260505090050 | 64 | 188 | 0.0 | 1.0 | 0.00 | 0.00 | 0.00 | 61 | 1010.4 |
| 20260505085547 | 64 | 137 | 1.0 | 2.0 | 0.00 | 0.00 | 0.00 | 61 | 1010.4 |
| 20260505085045 | 64 | 133 | 0.0 | 1.0 | 0.00 | 0.00 | 0.00 | 61 | 1010.3 |
| 20260505084543 | 64 | 115 | 0.0 | 1.0 | 0.00 | 0.00 | 0.00 | 61 | 1010.6 |
| 20260505084041 | 64 | 286 | 2.0 | 2.0 | 0.00 | 0.00 | 0.00 | 61 | 1010.5 |
| 20260505083538 | 64 | 140 | 1.0 | 1.0 | 0.00 | 0.00 | 0.00 | 60 | 1010.4 |
| 20260505083034 | 64 | 134 | 1.0 | 1.0 | 0.00 | 0.00 | 0.00 | 60 | 1010.4 |
| 20260505082530 | 64 | 118 | 1.0 | 3.0 | 0.00 | 0.00 | 0.00 | 60 | 1010.3 |
| 20260505082027 | 64 | 195 | 1.0 | 3.0 | 0.00 | 0.00 | 0.00 | 60 | 1010.3 |
| 20260505081524 | 64 | 55 | 0.0 | 1.0 | 0.00 | 0.00 | 0.00 | 60 | 1010.3 |
| 20260505081021 | 64 | 131 | 1.0 | 2.0 | 0.00 | 0.00 | 0.00 | 60 | 1010.1 |
| 20260505080517 | 65 | 133 | 1.0 | 1.0 | 0.00 | 0.00 | 0.00 | 59 | 1010.0 |
| 20260505080014 | 65 | 164 | 1.0 | 2.0 | 0.00 | 0.00 | 0.00 | 59 | 1010.4 |
| 20260505075510 | 65 | 127 | 1.0 | 2.0 | 0.00 | 0.00 | 0.00 | 59 | 1010.3 |
| 20260505075007 | 65 | 139 | 1.0 | 3.0 | 0.00 | 0.00 | 0.00 | 58 | 1010.4 |
| 20260505074504 | 65 | 109 | 1.0 | 1.0 | 0.00 | 0.00 | 0.00 | 59 | 1010.2 |
| 20260505074001 | 65 | 89 | 0.0 | 2.0 | 0.00 | 0.00 | 0.00 | 58 | 1009.9 |
| 20260505073459 | 65 | 127 | 0.0 | 1.0 | 0.00 | 0.00 | 0.00 | 58 | 1010.1 |
| 20260505072956 | 65 | 160 | 1.0 | 3.0 | 0.00 | 0.00 | 0.00 | 57 | 1009.9 |
| 20260505072452 | 66 | 127 | 1.0 | 2.0 | 0.00 | 0.00 | 0.00 | 57 | 1009.9 |
| 20260505071948 | 66 | 159 | 1.0 | 2.0 | 0.00 | 0.00 | 0.00 | 57 | 1009.8 |
| 20260505071444 | 66 | 137 | 3.0 | 4.0 | 0.00 | 0.00 | 0.00 | 56 | 1009.8 |
| 20260505070942 | 66 | 107 | 4.0 | 6.0 | 0.00 | 0.00 | 0.00 | 56 | 1009.8 |
| 20260505070439 | 66 | 146 | 1.0 | 6.0 | 0.00 | 0.00 | 0.00 | 56 | 1010.0 |
| 20260505065934 | 66 | 107 | 1.0 | 4.0 | 0.00 | 0.00 | 0.00 | 56 | 1010.0 |
| 20260505065431 | 66 | 105 | 0.0 | 6.0 | 0.00 | 0.00 | 0.00 | 56 | 1010.2 |
| 20260505064928 | 66 | 170 | 1.0 | 4.0 | 0.00 | 0.00 | 0.00 | 55 | 1010.1 |
| 20260505064425 | 66 | 163 | 2.0 | 3.0 | 0.00 | 0.00 | 0.00 | 55 | 1010.0 |
| 20260505063923 | 66 | 138 | 1.0 | 2.0 | 0.00 | 0.00 | 0.00 | 56 | 1010.2 |
| 20260505063419 | 66 | 108 | 1.0 | 2.0 | 0.00 | 0.00 | 0.00 | 55 | 1010.4 |
| 20260505062916 | 67 | 157 | 1.0 | 2.0 | 0.00 | 0.00 | 0.00 | 55 | 1010.2 |
| 20260505062413 | 67 | 144 | 1.0 | 6.0 | 0.00 | 0.00 | 0.00 | 55 | 1010.1 |
| 20260505061910 | 67 | 339 | 0.0 | 2.0 | 0.00 | 0.00 | 0.00 | 54 | 1009.9 |
| 20260505061408 | 67 | 75 | 2.0 | 6.0 | 0.00 | 0.00 | 0.00 | 54 | 1009.8 |
| 20260505060905 | 67 | 223 | 1.0 | 8.0 | 0.00 | 0.00 | 0.00 | 54 | 1009.9 |
| 20260505060402 | 67 | 105 | 1.0 | 4.0 | 0.00 | 0.00 | 0.00 | 54 | 1009.9 |
| 20260505055858 | 67 | 132 | 2.0 | 9.0 | 0.00 | 0.00 | 0.00 | 54 | 1010.0 |
| 20260505055354 | 67 | 237 | 2.0 | 6.0 | 0.00 | 0.00 | 0.00 | 54 | 1010.3 |
| 20260505054851 | 67 | 163 | 3.0 | 4.0 | 0.00 | 0.00 | 0.00 | 54 | 1010.3 |
| 20260505054348 | 67 | 153 | 2.0 | 7.0 | 0.00 | 0.00 | 0.00 | 54 | 1010.2 |
| 20260505053847 | 67 | 196 | 1.0 | 3.0 | 0.00 | 0.00 | 0.00 | 54 | 1010.4 |
| 20260505053344 | 67 | 266 | 1.0 | 4.0 | 0.00 | 0.00 | 0.00 | 53 | 1010.4 |
| 20260505052840 | 67 | 272 | 2.0 | 7.0 | 0.00 | 0.00 | 0.00 | 54 | 1010.5 |
| 20260505052337 | 67 | 169 | 4.0 | 8.0 | 0.00 | 0.00 | 0.00 | 53 | 1010.4 |
| 20260505051834 | 66 | 131 | 2.0 | 6.0 | 0.00 | 0.00 | 0.00 | 54 | 1010.3 |
| 20260505051331 | 66 | 353 | 1.0 | 6.0 | 0.00 | 0.00 | 0.00 | 54 | 1010.6 |
| 20260505050830 | 66 | 133 | 5.0 | 7.0 | 0.00 | 0.00 | 0.00 | 54 | 1010.5 |
| 20260505050328 | 67 | 146 | 1.0 | 3.0 | 0.00 | 0.00 | 0.00 | 54 | 1010.6 |
| 20260505041758 | 68 | 134 | 2.0 | 6.0 | 0.00 | 0.00 | 0.00 | 51 | 1010.4 |
| 20260505041255 | 68 | 136 | 2.0 | 3.0 | 0.00 | 0.00 | 0.00 | 51 | 1010.5 |
| 20260505040752 | 69 | 145 | 2.0 | 2.0 | 0.00 | 0.00 | 0.00 | 50 | 1010.6 |
| 20260505040250 | 69 | 142 | 2.0 | 2.0 | 0.00 | 0.00 | 0.00 | 50 | 1010.8 |
| 20260505035746 | 69 | 127 | 0.0 | 1.0 | 0.00 | 0.00 | 0.00 | 49 | 1010.8 |
| 20260505035242 | 70 | 243 | 0.0 | 0.0 | 0.00 | 0.00 | 0.00 | 48 | 1010.8 |
| 20260505034739 | 70 | 119 | 1.0 | 1.0 | 0.00 | 0.00 | 0.00 | 47 | 1010.5 |
| 20260505034236 | 70 | 128 | 0.0 | 2.0 | 0.00 | 0.00 | 0.00 | 47 | 1010.7 |
| 20260505033732 | 70 | 136 | 0.0 | 3.0 | 0.00 | 0.00 | 0.00 | 46 | 1010.8 |
| 20260505033231 | 71 | 2 | 0.0 | 3.0 | 0.00 | 0.00 | 0.00 | 46 | 1010.7 |
| 20260505032728 | 71 | 164 | 2.0 | 2.0 | 0.00 | 0.00 | 0.00 | 46 | 1010.7 |
| 20260505032224 | 71 | 134 | 1.0 | 2.0 | 0.00 | 0.00 | 0.00 | 45 | 1010.8 |
| 20260505031722 | 71 | 123 | 1.0 | 1.0 | 0.00 | 0.00 | 0.00 | 45 | 1010.7 |
| 20260505031218 | 71 | 146 | 0.0 | 2.0 | 0.00 | 0.00 | 0.00 | 45 | 1010.4 |
| 20260505030715 | 71 | 213 | 0.0 | 6.0 | 0.00 | 0.00 | 0.00 | 45 | 1010.7 |
| 20260505030211 | 71 | 167 | 1.0 | 4.0 | 0.00 | 0.00 | 0.00 | 44 | 1010.5 |
| 20260505025707 | 71 | 87 | 0.0 | 3.0 | 0.00 | 0.00 | 0.00 | 44 | 1010.4 |
| 20260505025205 | 71 | 4 | 1.0 | 6.0 | 0.00 | 0.00 | 0.00 | 44 | 1010.3 |
| 20260505024703 | 72 | 5 | 2.0 | 3.0 | 0.00 | 0.00 | 0.00 | 44 | 1010.4 |
| 20260505024200 | 72 | 119 | 0.0 | 2.0 | 0.00 | 0.00 | 0.00 | 43 | 1010.0 |
| 20260505023657 | 72 | 123 | 3.0 | 6.0 | 0.00 | 0.00 | 0.00 | 43 | 1010.2 |
| 20260505023154 | 72 | 160 | 2.0 | 4.0 | 0.00 | 0.00 | 0.00 | 43 | 1010.2 |
| 20260505022652 | 72 | 37 | 2.0 | 6.0 | 0.00 | 0.00 | 0.00 | 43 | 1010.1 |
| 20260505022149 | 72 | 186 | 1.0 | 7.0 | 0.00 | 0.00 | 0.00 | 42 | 1010.0 |
| 20260505021645 | 72 | 110 | 1.0 | 3.0 | 0.00 | 0.00 | 0.00 | 43 | 1009.8 |
| 20260505021142 | 72 | 94 | 1.0 | 3.0 | 0.00 | 0.00 | 0.00 | 42 | 1010.0 |
| 20260505020638 | 72 | 258 | 3.0 | 7.0 | 0.00 | 0.00 | 0.00 | 42 | 1009.8 |
| 20260505020134 | 72 | 58 | 1.0 | 6.0 | 0.00 | 0.00 | 0.00 | 42 | 1009.8 |
| 20260505015631 | 72 | 124 | 1.0 | 6.0 | 0.00 | 0.00 | 0.00 | 42 | 1009.5 |
| 20260505015128 | 72 | 57 | 1.0 | 8.0 | 0.00 | 0.00 | 0.00 | 42 | 1009.6 |
| 20260505014624 | 72 | 277 | 2.0 | 7.0 | 0.00 | 0.00 | 0.00 | 41 | 1009.3 |
| 20260505014121 | 72 | 314 | 2.0 | 3.0 | 0.00 | 0.00 | 0.00 | 41 | 1009.2 |
| 20260505013619 | 72 | 196 | 2.0 | 3.0 | 0.00 | 0.00 | 0.00 | 41 | 1009.2 |
| 20260505013116 | 73 | 212 | 2.0 | 4.0 | 0.00 | 0.00 | 0.00 | 41 | 1009.5 |
| 20260505012615 | 73 | 219 | 2.0 | 8.0 | 0.00 | 0.00 | 0.00 | 41 | 1009.4 |
| 20260505012111 | 73 | 131 | 0.0 | 6.0 | 0.00 | 0.00 | 0.00 | 41 | 1009.1 |
| 20260505011606 | 73 | 156 | 1.0 | 6.0 | 0.00 | 0.00 | 0.00 | 41 | 1009.2 |
| 20260505011104 | 73 | 118 | 1.0 | 1.0 | 0.00 | 0.00 | 0.00 | 40 | 1009.2 |
| 20260505010605 | 74 | 140 | 2.0 | 4.0 | 0.00 | 0.00 | 0.00 | 40 | 1009.0 |
| 20260505005558 | 74 | 146 | 1.0 | 2.0 | 0.00 | 0.00 | 0.00 | 39 | 1009.1 |
| 20260505005055 | 74 | 107 | 1.0 | 2.0 | 0.00 | 0.00 | 0.00 | 38 | 1009.0 |
| 20260505004552 | 75 | 163 | 3.0 | 7.0 | 0.00 | 0.00 | 0.00 | 38 | 1009.0 |
| 20260505004049 | 75 | 107 | 2.0 | 3.0 | 0.00 | 0.00 | 0.00 | 38 | 1009.0 |
| 20260505003546 | 75 | 88 | 2.0 | 4.0 | 0.00 | 0.00 | 0.00 | 38 | 1009.0 |
| 20260505003043 | 75 | 146 | 4.0 | 6.0 | 0.00 | 0.00 | 0.00 | 37 | 1009.2 |
| 20260505002538 | 76 | 36 | 2.0 | 6.0 | 0.00 | 0.00 | 0.00 | 37 | 1009.2 |
| 20260505002037 | 76 | 318 | 5.0 | 8.0 | 0.00 | 0.00 | 0.00 | 37 | 1009.2 |
| 20260505001534 | 76 | 131 | 1.0 | 9.0 | 0.00 | 0.00 | 0.00 | 37 | 1009.2 |
| 20260505001031 | 76 | 271 | 0.0 | 4.0 | 0.00 | 0.00 | 0.00 | 37 | 1009.4 |
| 20260505000529 | 76 | 65 | 1.0 | 7.0 | 0.00 | 0.00 | 0.00 | 37 | 1009.2 |
| 20260505000026 | 77 | 143 | 5.0 | 8.0 | 0.00 | 0.00 | 0.00 | 36 | 1009.2 |
| 20260504235523 | 77 | 122 | 2.0 | 4.0 | 0.00 | 0.00 | 0.00 | 35 | 1009.3 |
| 20260504235019 | 77 | 200 | 3.0 | 3.0 | 0.00 | 0.00 | 0.00 | 35 | 1009.5 |
| 20260504234517 | 77 | 135 | 1.0 | 6.0 | 0.00 | 0.00 | 0.00 | 36 | 1009.3 |
| 20260504234014 | 77 | 115 | 0.0 | 6.0 | 0.00 | 0.00 | 0.00 | 36 | 1009.3 |
| 20260504233508 | 78 | 121 | 1.0 | 8.0 | 0.00 | 0.00 | 0.00 | 35 | 1009.5 |
| 20260504233006 | 78 | 190 | 1.0 | 6.0 | 0.00 | 0.00 | 0.00 | 34 | 1009.5 |
| 20260504232503 | 79 | 148 | 7.0 | 9.0 | 0.00 | 0.00 | 0.00 | 33 | 1009.6 |
| 20260504232000 | 79 | 182 | 3.0 | 6.0 | 0.00 | 0.00 | 0.00 | 35 | 1009.7 |
| 20260504231456 | 79 | 76 | 1.0 | 4.0 | 0.00 | 0.00 | 0.00 | 34 | 1010.0 |
| 20260504230953 | 79 | 346 | 1.0 | 4.0 | 0.00 | 0.00 | 0.00 | 34 | 1009.9 |
| 20260504230449 | 79 | 238 | 3.0 | 7.0 | 0.00 | 0.00 | 0.00 | 33 | 1009.9 |
| 20260504225949 | 79 | 102 | 0.0 | 4.0 | 0.00 | 0.00 | 0.00 | 34 | 1009.6 |
| 20260504225445 | 80 | 115 | 2.0 | 8.0 | 0.00 | 0.00 | 0.00 | 33 | 1010.0 |
| 20260504224942 | 80 | 266 | 2.0 | 4.0 | 0.00 | 0.00 | 0.00 | 34 | 1010.0 |
| 20260504224438 | 80 | 154 | 2.0 | 7.0 | 0.00 | 0.00 | 0.00 | 33 | 1010.1 |
| 20260504223936 | 80 | 285 | 2.0 | 6.0 | 0.00 | 0.00 | 0.00 | 34 | 1010.3 |
| 20260504223431 | 80 | 77 | 5.0 | 9.0 | 0.00 | 0.00 | 0.00 | 32 | 1010.1 |
| 20260504222927 | 80 | 123 | 1.0 | 4.0 | 0.00 | 0.00 | 0.00 | 33 | 1010.2 |
| 20260504222425 | 80 | 275 | 3.0 | 7.0 | 0.00 | 0.00 | 0.00 | 33 | 1010.2 |
| 20260504221923 | 80 | 310 | 4.0 | 7.0 | 0.00 | 0.00 | 0.00 | 32 | 1010.4 |
| 20260504221419 | 80 | 117 | 4.0 | 8.0 | 0.00 | 0.00 | 0.00 | 31 | 1010.2 |
| 20260504220916 | 80 | 37 | 4.0 | 4.0 | 0.00 | 0.00 | 0.00 | 33 | 1010.3 |
| 20260504220413 | 80 | 212 | 2.0 | 15.0 | 0.00 | 0.00 | 0.00 | 34 | 1010.4 |
| 20260504215910 | 80 | 164 | 2.0 | 8.0 | 0.00 | 0.00 | 0.00 | 33 | 1010.3 |
| 20260504215407 | 80 | 62 | 4.0 | 9.0 | 0.00 | 0.00 | 0.00 | 33 | 1010.2 |
| 20260504214903 | 80 | 188 | 3.0 | 9.0 | 0.00 | 0.00 | 0.00 | 32 | 1010.4 |
| 20260504214400 | 80 | 245 | 2.0 | 7.0 | 0.00 | 0.00 | 0.00 | 34 | 1010.2 |
| 20260504213857 | 80 | 236 | 4.0 | 11.0 | 0.00 | 0.00 | 0.00 | 32 | 1010.3 |
| 20260504213352 | 80 | 168 | 1.0 | 6.0 | 0.00 | 0.00 | 0.00 | 33 | 1010.1 |
| 20260504212850 | 80 | 134 | 4.0 | 4.0 | 0.00 | 0.00 | 0.00 | 33 | 1010.1 |
| 20260504212346 | 80 | 42 | 2.0 | 10.0 | 0.00 | 0.00 | 0.00 | 32 | 1010.3 |
| 20260504211844 | 80 | 198 | 3.0 | 9.0 | 0.00 | 0.00 | 0.00 | 32 | 1010.3 |
| 20260504211340 | 80 | 227 | 6.0 | 16.0 | 0.00 | 0.00 | 0.00 | 31 | 1010.5 |
| 20260504210837 | 80 | 266 | 7.0 | 9.0 | 0.00 | 0.00 | 0.00 | 32 | 1010.1 |
| 20260504210334 | 80 | 138 | 1.0 | 14.0 | 0.00 | 0.00 | 0.00 | 32 | 1010.2 |
| 20260504205831 | 80 | 169 | 4.0 | 10.0 | 0.00 | 0.00 | 0.00 | 32 | 1010.4 |
| 20260504205329 | 81 | 182 | 1.0 | 9.0 | 0.00 | 0.00 | 0.00 | 34 | 1010.1 |
| 20260504204827 | 80 | 271 | 3.0 | 9.0 | 0.00 | 0.00 | 0.00 | 33 | 1010.1 |
| 20260504204325 | 81 | 156 | 3.0 | 15.0 | 0.00 | 0.00 | 0.00 | 33 | 1010.1 |
| 20260504203824 | 81 | 90 | 3.0 | 6.0 | 0.00 | 0.00 | 0.00 | 34 | 1010.1 |
| 20260504203321 | 80 | 133 | 3.0 | 8.0 | 0.00 | 0.00 | 0.00 | 34 | 1010.1 |
| 20260504202816 | 81 | 206 | 4.0 | 10.0 | 0.00 | 0.00 | 0.00 | 34 | 1009.9 |
| 20260504202314 | 81 | 152 | 7.0 | 11.0 | 0.00 | 0.00 | 0.00 | 34 | 1010.1 |
| 20260504201810 | 81 | 312 | 3.0 | 8.0 | 0.00 | 0.00 | 0.00 | 33 | 1010.1 |
| 20260504201308 | 81 | 245 | 2.0 | 6.0 | 0.00 | 0.00 | 0.00 | 33 | 1010.2 |
| 20260504200805 | 81 | 308 | 5.0 | 8.0 | 0.00 | 0.00 | 0.00 | 33 | 1010.2 |
| 20260504200301 | 81 | 294 | 7.0 | 8.0 | 0.00 | 0.00 | 0.00 | 32 | 1010.4 |
| 20260504195758 | 80 | 28 | 2.0 | 9.0 | 0.00 | 0.00 | 0.00 | 33 | 1010.3 |
| 20260504195254 | 80 | 289 | 6.0 | 10.0 | 0.00 | 0.00 | 0.00 | 31 | 1010.1 |
| 20260504194751 | 80 | 219 | 2.0 | 11.0 | 0.00 | 0.00 | 0.00 | 34 | 1010.6 |
| 20260504194247 | 80 | 143 | 4.0 | 13.0 | 0.00 | 0.00 | 0.00 | 34 | 1010.5 |
| 20260504193743 | 81 | 231 | 1.0 | 9.0 | 0.00 | 0.00 | 0.00 | 34 | 1010.3 |
| 20260504193240 | 81 | 130 | 4.0 | 16.0 | 0.00 | 0.00 | 0.00 | 33 | 1010.6 |
| 20260504192739 | 81 | 305 | 5.0 | 10.0 | 0.00 | 0.00 | 0.00 | 33 | 1010.7 |
| 20260504180547 | 80 | 172 | 5.0 | 13.0 | 0.00 | 0.00 | 0.00 | 37 | 1011.7 |
| 20260504180046 | 80 | 172 | 5.0 | 13.0 | 0.00 | 0.00 | 0.00 | 37 | 1011.7 |
| 20260504175542 | 81 | 193 | 4.0 | 8.0 | 0.00 | 0.00 | 0.00 | 37 | 1011.7 |
| 20260504175039 | 80 | 130 | 3.0 | 4.0 | 0.00 | 0.00 | 0.00 | 37 | 1011.9 |
| 20260504174537 | 80 | 134 | 1.0 | 7.0 | 0.00 | 0.00 | 0.00 | 39 | 1011.9 |
| 20260504174034 | 79 | 122 | 2.0 | 6.0 | 0.00 | 0.00 | 0.00 | 38 | 1012.1 |
| 20260504173531 | 80 | 226 | 2.0 | 16.0 | 0.00 | 0.00 | 0.00 | 37 | 1012.2 |
| 20260504173028 | 80 | 142 | 4.0 | 8.0 | 0.00 | 0.00 | 0.00 | 37 | 1012.1 |
| 20260504172524 | 79 | 297 | 3.0 | 11.0 | 0.00 | 0.00 | 0.00 | 38 | 1012.2 |
| 20260504172021 | 79 | 357 | 1.0 | 3.0 | 0.00 | 0.00 | 0.00 | 39 | 1012.4 |
| 20260504171518 | 79 | 290 | 4.0 | 14.0 | 0.00 | 0.00 | 0.00 | 37 | 1012.3 |
| 20260504171015 | 79 | 277 | 6.0 | 9.0 | 0.00 | 0.00 | 0.00 | 35 | 1012.3 |
| 20260504170510 | 78 | 23 | 1.0 | 9.0 | 0.00 | 0.00 | 0.00 | 40 | 1012.2 |
| 20260504160431 | 77 | 279 | 3.0 | 7.0 | 0.00 | 0.00 | 0.00 | 43 | 1013.0 |
| 20260504150854 | 73 | 122 | 0.0 | 3.0 | 0.00 | 0.00 | 0.00 | 52 | 1013.3 |
| 20260504150351 | 72 | 118 | 4.0 | 4.0 | 0.00 | 0.00 | 0.00 | 51 | 1013.3 |
| 20260504141321 | 69 | 294 | 5.0 | 7.0 | 0.00 | 0.00 | 0.00 | 56 | 1013.4 |
| 20260504140817 | 68 | 266 | 4.0 | 6.0 | 0.00 | 0.00 | 0.00 | 57 | 1013.3 |
| 20260504140313 | 68 | 287 | 2.0 | 2.0 | 0.00 | 0.00 | 0.00 | 59 | 1013.5 |
| 20260504130742 | 64 | 109 | 4.0 | 6.0 | 0.00 | 0.00 | 0.00 | 62 | 1013.7 |
| 20260504130238 | 63 | 338 | 2.0 | 4.0 | 0.00 | 0.00 | 0.00 | 62 | 1013.7 |
| 20260504120202 | 60 | 136 | 3.0 | 6.0 | 0.00 | 0.00 | 0.00 | 63 | 1013.3 |
| 20260504110629 | 60 | 298 | 0.0 | 3.0 | 0.00 | 0.00 | 0.00 | 62 | 1013.0 |
| 20260504110125 | 60 | 105 | 0.0 | 2.0 | 0.00 | 0.00 | 0.00 | 62 | 1012.8 |
| 20260504100551 | 60 | 144 | 2.0 | 2.0 | 0.00 | 0.00 | 0.00 | 60 | 1013.0 |